#timestamp,LO_Frequency,Hit,StdDev 
1507644015.5,286047006.0,N
1507644035.3,286047005.8,N
1507644055.2,286047004.3,N
1507644075.9,286047009.3,Y
1507644095.7,286047007.4,P
1507644115.6,286047001.6,N
1507644135.4,286047002.8,N
1507644155.2,286047004.4,N
1507644175.1,286046999.6,N
1507644176.0,286046999.6,N
1507644195.8,286046999.6,N
1507644215.6,286047000.6,N
1507644235.5,286046999.4,N
1507644255.3,286046995.0,N
1507644275.1,286046994.5,N
1507644295.9,286046996.3,N
1507644315.7,286046994.8,N
1507644335.5,286046992.3,N
1507644355.3,286046991.7,N
1507644375.2,286046991.8,N
1507644395.0,286046994.2,N
1507644395.9,286046994.2,N
1507644415.7,286046991.2,N
1507644435.6,286046989.4,N
1507644455.4,286046991.4,N
1507644475.2,286046988.6,N
1507644495.1,286046992.6,N
1507644496.0,286046992.6,N
1507644515.8,286046993.1,N
1507644535.6,286046990.4,N
1507644555.5,286046992.7,N
1507644575.3,286046996.4,N
1507644595.1,286046992.2,N
1507644615.9,286046991.5,N
1507644635.7,286046991.3,N
1507644655.5,286046992.2,N
1507644675.4,286046993.9,N
1507644695.2,286046990.3,N
1507644715.0,286046989.1,Y
1507644715.9,286046989.1,P
1507644735.8,286046996.5,N
1507644755.6,286046995.2,N
1507644775.4,286046995.8,N
1507644795.3,286046996.2,N
1507644815.1,286046995.2,N
1507644816.0,286046995.2,N
1507644835.8,286046996.1,N
1507644855.6,286046999.1,N
1507644875.5,286047004.2,N
1507644895.3,286047004.0,N
1507644915.1,286047000.7,N
1507644935.9,286046998.4,N
1507644955.7,286047002.7,N
1507644975.5,286047001.0,N
1507644995.4,286046996.7,N
1507645015.2,286046997.8,N
1507645035.0,286046995.5,N
1507645035.9,286046995.5,N
1507645055.8,286046998.0,N
1507645075.6,286047001.0,N
1507645095.4,286047001.5,N
1507645115.3,286047002.3,N
1507645135.1,286046999.8,N
1507645136.0,286046999.8,N
1507645155.8,286047007.4,N
1507645175.7,286047003.0,N
1507645195.5,286047003.0,N
1507645215.3,286047002.9,N
1507645235.1,286047004.1,N
1507645255.9,286047001.1,N
1507645275.7,286046996.8,N
1507645295.5,286046993.8,N
1507645315.4,286046996.9,N
1507645335.2,286046996.1,N
1507645355.0,286046998.0,N
1507645355.9,286046998.0,N
1507645375.8,286047000.7,N
1507645395.6,286046999.3,N
1507645415.4,286046998.7,N
1507645435.3,286046996.5,N
1507645455.1,286046997.9,N
1507645475.8,286047000.0,N
1507645495.7,286046999.9,N
1507645515.5,286047000.3,N
1507645535.3,286046997.8,N
1507645555.2,286046999.0,N
1507645575.9,286046998.4,N
1507645595.7,286046999.6,N
1507645615.6,286046999.0,N
1507645635.4,286047000.8,N
1507645655.2,286046998.5,N
1507645675.0,286047000.6,N
1507645675.9,286047000.6,N
1507645695.8,286047004.4,N
1507645715.6,286047001.9,N
1507645735.4,286047004.0,N
1507645755.3,286047005.8,N
1507645775.1,286047001.1,N
1507645795.8,286047001.1,N
1507645815.7,286047001.9,N
1507645835.5,286047001.0,N
1507645855.3,286047002.2,N
1507645875.2,286047001.5,N
1507645895.9,286047001.0,N
1507645915.7,286046996.5,N
1507645935.6,286046997.2,N
1507645955.4,286046995.0,N
1507645975.2,286046991.8,Y
1507645995.1,286046996.2,P
1507645996.0,286046996.2,N
1507646015.8,286046994.5,P
1507646035.6,286046994.8,N
1507646055.5,286046990.8,Y
1507646075.3,286046993.2,P
1507646095.1,286046991.1,P
1507646115.9,286046989.2,P
1507646135.7,286046992.6,N
1507646155.5,286046997.5,N
1507646175.3,286046997.3,N
1507646195.2,286046996.1,N
1507646215.0,286046994.1,N
1507646215.9,286046994.1,N
1507646235.7,286046995.9,N
1507646255.6,286046996.8,N
1507646275.4,286046996.8,N
1507646295.2,286046994.9,N
1507646315.1,286046990.1,Y
1507646316.0,286046990.1,P
1507646335.8,286046995.6,N
1507646355.6,286046995.0,N
1507646375.5,286046993.9,N
1507646395.3,286046993.9,Y
1507646415.1,286046998.2,P
1507646435.9,286047001.3,N
1507646455.7,286047004.7,N
1507646475.5,286047005.2,N
1507646495.4,286047006.7,N
1507646515.2,286047004.0,N
1507646535.0,286047004.8,N
1507646535.9,286047004.8,N
1507646555.8,286047005.8,N
1507646575.6,286047008.8,N
1507646595.4,286047005.5,N
1507646615.2,286046999.1,N
1507646635.1,286047002.6,N
1507646636.0,286047002.6,N
1507646655.8,286047007.4,N
1507646675.6,286047002.6,N
1507646695.5,286047005.1,N
1507646715.3,286047006.9,N
1507646735.1,286047008.1,N
1507646755.9,286047010.7,Y
1507646775.7,286047004.2,P
1507646795.5,286047001.0,P
1507646815.4,286046999.8,N
1507646835.2,286047000.6,N
1507646855.0,286046998.5,N
1507646855.9,286046998.5,N
1507646875.8,286046999.8,N
1507646895.6,286046995.7,N
1507646915.4,286047002.6,N
1507646935.3,286047002.7,N
1507646955.1,286046997.1,N
1507646956.0,286046997.1,N
1507646975.8,286046995.9,N
1507646995.7,286046992.5,N
1507647015.5,286046993.6,N
1507647035.3,286046991.0,N
1507647055.2,286046991.1,N
1507647075.9,286046991.0,N
1507647095.7,286046993.0,N
1507647115.5,286046991.7,N
1507647135.4,286046993.9,N
1507647155.2,286046991.8,N
1507647175.0,286046992.7,N
1507647175.9,286046992.7,N
1507647195.8,286046994.6,N
1507647215.6,286046988.5,N
1507647235.4,286046989.5,N
1507647255.3,286046990.9,N
1507647275.1,286046992.4,N
1507647295.8,286046994.2,N
1507647315.7,286046999.5,N
1507647335.5,286047000.2,N
1507647355.3,286046998.9,N
1507647375.2,286046999.3,N
1507647395.9,286046996.6,N
1507647415.7,286046995.0,N
1507647435.6,286046996.4,N
1507647455.4,286046995.7,N
1507647475.2,286046993.4,N
1507647495.0,286046997.1,N
1507647495.9,286046997.1,N
1507647515.8,286046993.9,N
1507647535.6,286046993.1,N
1507647555.4,286046994.4,N
1507647575.3,286046994.3,N
1507647595.1,286046999.6,N
